Pompano Beach, FL

3:58 PM EDT on August 28, 2016 (GMT -0400)
Pompano Beach

Weather History for KPMP - February, 2015

Change the Weather History Date:

Monday, February 2, 2015

  Actual Average Record
Temperature  
Mean Temperature 77 °F -  
Max Temperature 84 °F 78 °F 87 °F (2007)
Min Temperature 68 °F 60 °F 38 °F (1979)
Cooling Degree Days 12    
Growing Degree Days 27 (Base 50)    
Moisture  
Dew Point 62 °F    
Average Humidity 64    
Maximum Humidity 78    
Minimum Humidity 44    
Precipitation  
Precipitation 0.01 in - - ()
Sea Level Pressure  
Sea Level Pressure 30.03 in    
Wind  
Wind Speed 10 mph (SW)    
Max Wind Speed 20 mph    
Max Gust Speed 26 mph    
Visibility 10 miles    
Events      
Averages and records for this station are not official NWS values.
T = Trace of Precipitation, MM = Missing Value Source: NWS Daily Summary

Daily Weather History Graph

Daily Weather History Graph

Search for Another Location

Airport or City:

Trip Planner

Search our weather history database for the weather conditions in past years. The results will help you decide how hot, cold, wet, or windy it might be!

Date:

Astronomy

Feb. 02, 2015 Rise Set
Actual Time 7:04 AM EST 6:04 PM EST
Civil Twilight 6:40 AM EST 6:28 PM EST
Nautical Twilight 6:12 AM EST 6:55 PM EST
Astronomical Twilight 5:45 AM EST 7:23 PM EST
Moon 5:13 PM EST (2/2) 5:53 AM EST (2/2)
Length of Visible Light 11h 47m
Length of Day
10h 59m
Waxing Gibbous, 99% of the Moon is Illuminated
Feb 2
Waxing Gibbous
Feb 3
Full
Feb 11
Last Quarter
Feb 18
New
Feb 25
First Quarter

Hourly Weather History & Observations

Time (EST) Temp. Heat Index Dew Point Humidity Pressure Visibility Wind Dir Wind Speed Gust Speed Precip Events Conditions
12:53 AM 73.9 °F - 61.0 °F 64% 30.06 in 10.0 mi SSE 9.2 mph 19.6 mph N/A   Scattered Clouds
1:53 AM 73.0 °F - 64.0 °F 73% 30.05 in 10.0 mi South 9.2 mph - 0.00 in   Scattered Clouds
2:53 AM 72.0 °F - 64.0 °F 76% 30.03 in 10.0 mi SSW 6.9 mph - 0.01 in   Scattered Clouds
3:53 AM 72.0 °F - 63.0 °F 73% 30.02 in 10.0 mi South 6.9 mph - N/A   Clear
4:53 AM 72.0 °F - 62.1 °F 71% 30.02 in 10.0 mi South 5.8 mph - N/A   Clear
5:53 AM 72.0 °F - 63.0 °F 73% 30.03 in 10.0 mi South 5.8 mph - N/A   Clear
6:53 AM 71.1 °F - 64.0 °F 78% 30.03 in 9.0 mi South 5.8 mph - N/A   Clear
7:53 AM 73.0 °F - 64.9 °F 76% 30.03 in 8.0 mi South 6.9 mph - N/A   Scattered Clouds
8:53 AM 75.9 °F - 64.9 °F 69% 30.06 in 9.0 mi SSW 6.9 mph - N/A   Mostly Cloudy
9:53 AM 77.0 °F - 66.9 °F 71% 30.06 in 9.0 mi South 10.4 mph - N/A   Mostly Cloudy
10:53 AM 77.0 °F - 64.9 °F 66% 30.05 in 10.0 mi SSW 10.4 mph - N/A   Mostly Cloudy
11:53 AM 82.0 °F 83.8 °F 64.9 °F 56% 30.03 in 10.0 mi SW 17.3 mph 21.9 mph N/A   Scattered Clouds
12:53 PM 82.0 °F 83.4 °F 64.0 °F 54% 30.00 in 10.0 mi WSW 17.3 mph - N/A   Scattered Clouds
1:53 PM 84.0 °F 84.5 °F 62.1 °F 47% 29.98 in 10.0 mi SW 16.1 mph - N/A   Scattered Clouds
2:53 PM 84.9 °F 85.0 °F 61.0 °F 44% 29.96 in 10.0 mi WSW 17.3 mph - N/A   Clear
3:53 PM 82.9 °F 83.2 °F 60.1 °F 46% 29.97 in 10.0 mi West 19.6 mph 26.5 mph N/A   Clear
4:53 PM 81.0 °F 81.9 °F 62.1 °F 52% 29.99 in 10.0 mi WSW 16.1 mph 24.2 mph N/A   Mostly Cloudy
5:53 PM 78.1 °F - 62.1 °F 58% 30.01 in 10.0 mi WSW 12.7 mph - N/A   Clear
6:53 PM 75.9 °F - 62.1 °F 62% 30.02 in 10.0 mi West 9.2 mph - N/A   Clear
7:53 PM 73.9 °F - 60.1 °F 62% 30.04 in 10.0 mi West 6.9 mph - N/A   Clear
8:53 PM 73.0 °F - 60.1 °F 64% 30.04 in 10.0 mi West 5.8 mph - N/A   Clear
9:53 PM 72.0 °F - 61.0 °F 68% 30.06 in 10.0 mi WNW 10.4 mph - N/A   Clear
10:53 PM 70.0 °F - 62.1 °F 76% 30.07 in 10.0 mi NW 10.4 mph - N/A   Clear
11:53 PM 68.0 °F - 52.0 °F 56% 30.08 in 10.0 mi NW 12.7 mph - N/A   Clear